CAPE
0 0 0 0 0 0 0 0 0 0 0 0 25 30 401 948 1495 1710 1902 1942 1988 1937 2049 1838 1782 1775 1729 1790 1642 1697 1961 1895 1681 1893 2224 2154 2761 2854 2624 2708 2810 2867 2921 2927
0 0 0 0 0 0 0 0 0 0 0 0 0 29 321 1169 1465 1655 1510 1494 1572 1465 1555 1960 1947 1832 1781 1645 977 1116 764 625 370 1195 1760 1673 1446 1106 715 999 1073 1446 2087 2381
0 0 0 0 0 0 0 0 0 0 0 0 0 0 228 1123 1292 1371 1199 1101 1009 1150 1093 1299 1082 744 697 593 651 314 134 3 2 0 175 863 1860 850 340 1311 997 526 1317 1626
0 0 0 0 0 0 0 0 0 0 0 0 0 4 177 957 1237 1274 1167 946 977 653 881 804 844 719 586 573 347 599 742 480 428 717 777 1423 1605 1669 1593 1921 2120 1433 1840 2296
0 0 0 0 0 0 0 0 0 0 0 0 0 10 243 919 1271 1334 1136 1104 841 736 767 747 533 652 488 347 370 146 89 232 339 823 1148 1263 1061 1546 1572 1501 1736 1975 2219 2525
0 0 0 0 0 0 0 0 0 0 0 11 12 0 17 926 1105 1132 1025 728 592 566 508 436 391 329 136 67 92 128 186 257 430 543 729 794 1299 1601 1579 1824 1917 1873 1930 2007
0 0 0 0 0 0 2 0 0 0 2 25 120 129 609 1086 999 915 877 580 466 383 303 180 43 3 0 0 0 0 36 215 407 608 617 706 956 1055 1259 1282 1927 2066 1633 1488
1 0 0 0 0 5 67 126 49 61 56 106 384 904 1216 1236 1097 1017 938 630 413 192 98 58 20 5 0 0 0 0 6 67 223 255 386 428 520 720 892 975 1885 1737 1757 1302
19 1 5 1 5 381 205 176 190 233 274 319 395 1060 1136 1243 1187 1014 837 466 207 151 78 83 73 21 0 0 0 0 0 7 56 274 293 349 290 343 459 894 685 1231 1497 1803
13 0 0 18 268 308 398 180 175 221 322 412 496 817 937 1146 837 359 224 189 147 150 111 44 19 0 0 0 9 19 19 13 20 65 53 212 111 137 222 307 319 443 464 755
1 0 10 9 3 18 141 245 241 251 455 575 760 939 966 496 312 203 193 250 247 219 123 50 2 0 0 0 28 28 11 0 0 0 0 13 18 33 44 92 0 34 70 34
177 5 0 0 19 2 96 364 322 945 1313 1128 970 691 288 227 292 173 204 205 145 233 60 2 2 2 0 1 4 4 0 0 0 0 0 0 0 1 0 0 0 0 0 0
0 7 0 35 51 293 290 478 985 1430 1482 953 609 402 297 137 170 92 195 180 60 45 8 12 5 0 0 0 1 1 0 0 0 0 0 0 1 6 7 1 0 0 0 0
0 2 5 30 9 172 536 603 1047 1197 1189 560 138 0 0 58 47 98 101 110 28 10 10 7 1 0 0 0 0 0 0 0 0 0 0 0 0 3 6 4 3 5 0 0
0 25 0 7 102 177 327 916 953 879 697 478 148 2 5 0 0 16 126 62 24 50 50 41 6 0 0 0 0 0 0 0 0 0 0 0 0 4 3 2 2 2 4 1
108 74 20 32 144 344 573 435 589 509 686 530 338 165 27 0 5 63 92 62 83 72 65 25 3 0 0 0 0 0 0 0 0 0 0 0 0 0 3 4 4 2 4 3
3 21 16 69 113 242 319 280 261 152 148 98 70 53 34 44 79 104 105 123 123 49 19 16 4 0 0 0 0 0 0 0 0 0 0 1 6 3 0 3 4 4 4 3
6 13 1 58 131 75 1 0 2 26 10 14 35 74 87 110 79 99 109 71 51 31 14 4 2 1 1 0 0 0 0 0 0 0 0 0 0 3 0 3 3 4 4 3
19 5 14 14 17 52 0 12 50 66 102 102 83 105 132 126 132 63 72 50 30 15 6 0 0 0 0 0 0 0 0 0 0 0 0 0 2 0 5 4 4 4 4 5
3 33 55 47 1 14 41 90 63 91 105 125 145 159 149 176 141 86 69 39 27 5 1 0 0 0 0 0 0 0 0 0 0 0 2 3 4 3 3 2 3 3 4 5
37 99 84 236 73 109 27 31 12 23 30 64 94 113 141 191 114 70 46 13 0 0 0 0 0 0 0 0 0 0 0 0 0 2 3 3 1 1 1 1 2 2 2 2
90 16 52 87 30 0 5 9 10 16 25 36 41 40 70 161 97 32 15 4 0 0 0 1 0 0 0 0 0 0 0 0 1 4 3 3 1 0 1 0 1 1 1 2
7 4 90 75 56 58 55 41 45 30 29 32 19 22 28 47 46 12 12 8 1 0 1 0 0 0 0 0 4 2 0 0 0 5 6 3 3 1 0 0 0 0 1 1
254 221 123 114 144 149 158 133 102 83 77 60 25 30 43 56 20 9 2 0 0 0 0 0 0 0 0 2 9 5 0 0 0 2 5 2 2 1 1 0 0 1 1 1
217 208 217 219 222 221 202 125 85 62 43 20 14 42 72 27 20 2 0 0 0 0 0 0 0 0 0 5 8 5 0 0 0 0 0 1 5 0 0 1 1 0 2 1
183 131 160 167 144 107 82 90 103 80 49 70 105 137 98 35 3 7 1 0 0 0 0 0 0 0 0 9 9 8 2 0 0 0 0 0 0 2 0 3 0 3 2 2
4 23 62 27 51 6 0 23 53 59 82 121 77 92 33 16 4 3 0 1 1 5 8 3 2 0 1 9 7 13 8 11 0 0 0 0 0 0 0 0 7 0 0 1
CIN
0 0 0 0 0 0 0 0 0 0 0 0 -12 -74 -35 -62 -78 -78 -40 -25 -24 -23 -43 -49 -47 -46 -30 -34 -36 -68 -41 -11 -3 -2 -2 -3 -1 -3 -2 -3 -1 -1 -1 -2
0 0 0 0 0 0 0 0 0 0 0 0 0 -47 -36 -50 -72 -55 -44 -39 -40 -63 -42 -18 -1 -3 0 0 -81 -78 -137 -137 -77 -12 -1 -7 -20 -77 -131 -91 -94 -47 -5 -2
0 0 0 0 0 0 0 0 0 0 0 0 0 0 -20 -37 -60 -34 -34 -42 -57 -64 -72 -31 -53 -96 -93 -117 -99 -194 -305 -75 -121 0 -64 -38 -6 -112 -183 -109 -106 -134 -61 -20
0 0 0 0 0 0 0 0 0 0 0 0 0 -4 -8 -49 -63 -20 -13 -29 -26 -77 -61 -67 -52 -61 -77 -77 -116 -67 -57 -27 -9 -1 -30 -2 -11 -38 -53 -29 -13 -38 -13 -1
0 0 0 0 0 0 0 0 0 0 0 0 0 -2 -4 -26 -33 -12 -17 -21 -50 -61 -62 -72 -71 -45 -70 -66 -59 -134 -189 -127 -98 -32 -2 0 -26 -12 -40 -80 -22 -2 -1 -1
0 0 0 0 0 0 0 0 0 0 0 -3 -3 0 -2 -12 -19 -22 -35 -89 -72 -66 -92 -95 -74 -84 -134 -142 -144 -101 -90 -123 -119 -112 -85 -63 -31 -26 -37 -39 -12 -11 -2 -2
0 0 0 0 0 0 -3 0 0 0 -3 -3 -11 -6 -14 -76 -106 -65 -29 -60 -70 -77 -98 -127 -194 -163 0 0 0 0 -214 -187 -133 -118 -141 -101 -79 -65 -59 -104 -15 0 -12 -18
-5 -10 0 0 0 -3 -14 -19 -3 -8 -2 -2 -3 -7 -19 -58 -71 -41 -26 -42 -51 -108 -149 -221 -285 -220 0 0 0 0 -373 -255 -186 -194 -155 -150 -110 -63 -29 -47 -1 -2 -3 -22
-13 -7 -4 -8 -3 -43 -23 -10 -20 -14 -1 -2 -3 -3 -4 -9 -21 -8 -11 -34 -76 -113 -182 -210 -230 -318 0 0 0 0 0 -423 -316 -197 -151 -129 -128 -115 -70 -26 -80 -8 -2 0
-33 0 0 -6 -9 -3 -8 -20 -18 -11 -4 -3 -2 -3 -1 -7 -2 -11 -39 -63 -114 -131 -159 -240 -302 0 0 -86 -469 -410 -405 -414 -344 -259 -229 -154 -202 -171 -121 -109 -126 -95 -123 -90
-31 -20 -46 -23 -11 -24 -32 -24 -17 -10 -2 -2 -3 -3 -14 -41 -12 -11 -23 -39 -103 -118 -163 -242 -190 0 0 0 -402 -382 -381 -149 0 0 0 -172 -216 -230 -239 -217 0 -354 -291 -304
-3 -12 0 0 -6 -12 -7 -3 -11 -4 -12 -10 -15 -29 -58 -33 -5 -11 -4 -3 -37 -72 -159 -1 0 -1 0 0 -363 -363 0 0 0 0 0 0 0 -1 0 0 0 0 0 0
0 -55 0 -59 -75 -6 -6 -4 -2 -10 -8 -69 -74 -50 -18 -18 -7 -27 -4 -1 -48 -114 -21 -1 -1 0 0 0 -215 -279 0 0 0 0 0 0 -1 -1 0 -1 0 0 0 0
0 -29 -23 -8 -26 -20 -3 -2 -11 -1 -7 -71 -173 0 0 -16 -31 -19 -1 0 -31 -157 -181 -54 -1 0 0 0 0 0 0 0 0 0 0 0 0 -1 -1 0 0 0 0 0
0 -8 -6 -33 -13 -4 -4 -7 -3 -1 -26 -59 -94 -86 -68 0 0 -28 -1 -26 -96 -137 -141 -188 -145 0 0 0 0 0 0 0 0 0 0 0 0 -1 -2 0 0 -1 0 0
-3 -4 -44 -63 -3 -4 -2 -6 -7 -2 -2 -11 -41 -83 -118 0 -39 -38 -23 -32 -11 -87 -130 -200 -1 0 0 0 0 0 0 0 0 0 0 0 0 -1 -1 0 0 0 0 0
-6 -21 -49 -8 -10 -11 -3 -1 -2 -2 -4 -43 -76 -68 -69 -88 -16 -11 -14 -28 -56 -107 -11 0 -1 0 0 0 0 0 0 0 0 0 0 -2 -2 -1 0 0 0 0 0 0
-1 -8 -19 -45 -29 -79 -17 0 -1 -34 -17 -26 -59 -54 -38 -23 -42 -43 -55 -70 -94 -92 -1 -1 -1 -1 -1 0 0 0 0 0 0 0 0 -1 -1 -1 0 0 0 0 0 0
-1 -18 -10 -48 -27 -3 0 -2 -6 -41 -50 -50 -57 -27 -9 -15 -29 -64 -63 -88 -77 -1 -2 0 0 0 0 0 0 0 0 0 0 0 -1 -1 -1 -1 0 0 0 0 0 0
-21 -15 -13 -9 -22 -8 -4 -2 -33 -75 -95 -64 -25 -15 -15 -5 -29 -49 -76 -89 -195 -17 0 0 0 0 0 0 0 0 0 0 0 0 0 0 0 0 0 0 0 0 0 0
-14 -2 -5 -3 -10 -2 -20 -36 -65 -97 -103 -53 -27 -22 -18 -11 -67 -75 -111 -178 -1 0 0 0 -1 0 0 0 0 0 0 0 0 0 0 0 0 0 0 0 0 0 0 0
-4 -13 -14 -6 -9 -9 -77 -74 -75 -105 -96 -70 -61 -63 -48 -22 -54 -98 -3 -4 0 0 0 -3 0 0 0 0 0 0 0 0 -1 0 0 0 0 0 0 0 0 0 0 0
-26 -30 -13 -18 -32 -52 -60 -65 -61 -61 -48 -38 -51 -74 -52 -34 -46 -5 -1 -3 -2 0 -1 0 0 0 0 0 -2 -1 0 0 -1 0 0 0 0 0 0 0 0 0 0 0
0 -1 -7 -27 -39 -46 -43 -35 -40 -37 -20 -11 -29 -35 -26 -22 -5 -4 -12 0 0 0 0 0 0 0 0 -1 -3 -1 0 0 -1 -1 0 -1 0 0 0 0 0 0 0 0
-1 -1 -1 -6 -16 -9 -11 -23 -25 -22 -17 -12 -8 -20 -4 -7 -3 -6 0 0 0 0 0 0 0 0 0 -3 -3 -6 -2 0 0 -3 0 -2 0 0 0 0 0 0 0 0
-2 -5 -3 -4 -6 -14 -5 -13 -1 -1 -6 -3 -2 -2 -2 -8 -14 -3 -1 0 0 0 -3 0 0 0 0 -3 -2 -4 -10 0 0 0 0 0 0 0 0 0 0 0 0 0
-10 -9 -6 -13 -4 -7 -7 -4 -5 -6 -4 -2 -4 -3 -2 -2 -3 -3 0 -3 -3 -2 -3 -5 -2 0 -2 -2 -3 -2 -1 -2 0 0 0 0 0 0 0 0 0 0 0 -3
Wind_Speed
34 33 29 25 21 17 22 22 27 22 20 18 12 8 7 9 12 12 10 9 10 11 11 10 10 9 8 8 9 11 17 16 18 19 18 15 15 18 21 25 26 26 26 23
40 37 33 34 29 24 24 22 25 26 28 24 13 8 7 8 7 9 10 10 9 10 12 10 9 9 8 10 11 12 12 14 20 24 24 23 21 19 20 26 33 35 33 32
42 34 36 43 31 30 29 27 22 26 22 21 19 13 11 11 8 7 8 9 9 9 10 9 9 9 10 11 12 14 16 22 27 33 35 30 19 24 27 30 32 31 29 27
42 38 48 37 32 30 31 29 24 23 19 17 16 14 10 9 9 7 8 8 9 9 9 8 9 10 11 13 15 16 17 17 16 14 19 16 16 21 26 26 28 29 30 32
44 45 46 37 32 32 30 32 25 22 21 19 20 15 15 10 8 8 9 9 10 9 9 10 10 10 11 13 14 16 18 18 18 19 20 17 20 18 23 25 28 27 27 25
44 49 54 40 31 25 26 41 25 22 20 17 16 19 17 9 9 10 7 7 7 6 6 8 9 10 11 13 14 15 17 17 19 20 21 22 19 22 23 25 28 26 28 23
46 50 49 34 32 31 35 35 25 23 18 17 16 19 13 5 6 7 6 5 3 3 6 6 7 8 9 10 14 15 16 17 19 21 21 23 25 25 27 28 27 25 28 27
44 47 50 35 26 31 22 14 17 13 15 14 13 13 8 7 6 4 5 4 3 4 5 5 6 8 10 12 14 16 16 18 19 21 22 24 25 26 25 25 26 25 24 24
39 37 38 28 28 20 21 17 15 14 11 12 13 12 9 7 6 4 4 4 1 3 3 5 8 9 11 14 17 19 20 23 24 25 25 25 27 27 26 24 25 26 26 25
34 36 32 29 19 16 21 19 17 16 15 16 15 11 11 8 7 7 6 4 3 3 6 7 9 11 14 16 19 20 22 25 26 27 27 27 28 28 28 27 26 26 25 25
31 42 39 43 31 24 21 21 19 17 15 15 12 11 8 7 8 5 6 6 5 5 7 9 10 13 15 17 19 21 23 25 26 28 28 29 29 29 29 28 27 27 26 25
32 28 28 41 32 35 29 24 21 15 15 15 9 8 7 7 6 3 8 9 8 5 8 10 11 13 16 18 20 23 24 24 26 28 28 29 30 31 28 29 28 27 26 25
28 31 27 34 36 17 18 19 17 15 11 6 7 7 7 8 6 5 17 16 8 8 9 8 12 15 17 19 22 22 23 25 27 28 29 29 30 31 33 32 27 26 24 25
34 39 34 20 26 10 13 14 12 12 8 8 8 5 6 8 6 9 16 15 6 10 12 15 16 17 19 20 22 23 25 22 26 29 30 29 30 29 30 31 31 29 25 25
34 41 39 38 35 23 18 10 15 13 12 11 11 11 12 12 9 12 16 10 11 13 14 15 16 17 19 20 22 23 24 25 28 29 30 30 29 29 29 30 30 30 29 26
32 34 34 35 31 19 16 11 14 14 11 12 13 13 11 5 4 10 14 14 14 13 10 13 14 17 19 21 23 23 25 22 26 29 30 30 31 31 30 31 30 31 30 29
30 32 32 31 25 23 11 7 8 8 6 6 5 5 6 5 4 5 8 7 10 11 12 14 15 16 18 21 23 24 25 27 28 28 31 31 30 30 30 31 32 31 30 29
31 30 33 34 25 16 6 4 4 4 5 4 5 6 6 6 4 3 1 3 7 9 11 12 14 15 18 22 24 24 26 28 30 31 32 31 30 30 29 30 31 32 32 30
27 28 35 26 34 4 5 5 6 5 4 5 8 7 7 6 3 4 3 7 8 9 10 12 12 16 18 22 23 24 27 30 32 33 33 33 33 30 29 30 30 30 31 32
24 12 29 36 12 5 8 6 5 3 2 5 8 8 7 4 3 6 9 11 12 7 8 10 13 15 17 21 23 26 29 30 32 32 33 34 32 29 27 28 28 28 29 28
8 8 7 5 8 14 6 6 4 2 2 4 6 7 6 4 8 11 12 12 11 11 9 12 13 15 18 20 23 26 29 30 32 33 33 33 32 28 27 27 26 26 28 28
5 6 11 8 5 2 3 1 2 1 2 2 2 8 10 8 12 15 15 10 7 6 7 10 12 16 17 20 22 26 28 30 29 30 32 32 30 27 26 25 24 24 25 25
6 3 5 4 4 4 5 4 5 4 4 3 4 9 12 10 11 13 13 11 6 7 12 9 10 13 16 18 20 23 27 29 31 32 33 32 29 26 24 24 23 23 23 23
4 3 5 5 4 5 7 8 8 8 8 5 6 10 10 11 12 15 7 9 7 7 12 7 10 12 14 16 18 21 24 28 30 31 32 32 30 27 24 23 22 22 21 20
4 4 2 6 8 9 11 10 10 10 10 6 6 9 8 8 10 8 10 8 7 10 10 8 8 11 13 14 17 18 20 25 29 30 33 32 31 28 26 22 21 19 17 16
8 8 8 11 11 11 10 10 12 9 8 7 8 9 10 11 8 6 7 8 8 10 8 9 9 10 12 15 16 16 16 19 23 27 31 34 33 29 25 21 20 18 17 15
10 11 11 10 13 16 18 16 11 12 11 8 7 8 8 7 8 8 9 8 9 8 9 8 9 10 15 15 14 15 16 17 18 20 24 28 32 31 27 20 18 17 17 16
Wind_Direction
272 276 282 286 279 266 266 272 272 281 282 290 292 290 304 298 299 306 318 326 324 321 322 321 312 312 322 329 338 325 293 304 302 301 307 320 318 318 317 312 309 309 312 316
270 271 274 274 276 275 276 273 274 278 280 287 317 309 302 307 305 299 306 316 327 331 330 326 331 335 328 319 319 313 314 309 308 306 304 307 308 312 315 308 292 289 299 301
267 270 271 267 267 271 275 276 274 275 284 284 282 290 289 293 289 288 296 305 310 328 324 329 335 335 335 330 323 322 315 300 296 302 290 297 312 305 308 299 305 302 308 312
267 268 262 270 274 274 270 272 272 274 282 294 294 292 288 291 278 279 292 296 297 314 323 327 329 326 326 326 322 319 327 326 327 323 319 315 314 316 308 309 305 301 303 303
263 264 270 272 274 269 270 269 266 269 273 280 286 291 289 284 278 276 287 299 297 306 315 328 328 333 330 321 324 332 324 328 329 325 331 336 324 323 317 310 301 304 306 317
262 263 262 270 275 278 274 269 269 267 267 272 278 277 283 273 274 287 287 292 288 304 325 326 326 328 327 334 332 321 333 338 332 334 336 343 343 327 324 313 304 300 298 315
258 261 265 275 277 280 260 273 266 261 262 261 258 287 308 266 278 281 273 283 280 302 321 340 0 10 357 350 341 344 337 343 341 337 335 334 321 333 313 307 300 297 292 298
259 260 259 263 287 270 282 298 283 263 258 256 260 287 280 277 281 249 234 227 251 294 310 338 354 356 344 347 349 347 343 339 335 330 330 323 317 315 326 321 296 300 303 303
267 267 270 276 276 280 290 281 275 274 272 263 265 268 267 262 254 219 197 197 234 275 295 325 331 334 334 328 326 320 320 315 314 312 317 315 310 309 316 319 317 309 299 304
264 263 268 270 278 280 275 282 282 278 273 271 270 263 264 258 249 232 213 214 223 258 280 300 317 321 325 324 314 311 312 310 308 305 305 307 302 302 297 303 304 305 309 308
274 267 267 261 261 267 275 277 279 282 280 278 270 265 256 251 250 233 241 240 235 250 277 291 308 313 315 318 321 318 318 316 315 307 301 301 301 299 300 302 303 300 302 304
268 279 272 249 265 257 262 268 275 270 274 279 264 255 255 222 230 246 244 248 246 254 283 294 306 314 317 328 324 321 321 328 323 316 316 311 308 302 303 303 303 301 302 301
268 264 277 266 275 252 251 261 263 266 260 251 255 265 231 202 231 256 243 242 259 268 284 311 307 315 323 328 320 324 327 324 316 315 318 316 313 307 301 305 307 305 304 301
264 262 264 267 216 270 253 260 259 256 242 236 221 199 243 252 264 257 252 249 281 271 283 296 300 318 319 318 315 319 321 333 322 315 313 315 314 314 310 305 303 302 304 299
272 257 262 263 270 277 284 275 268 247 240 240 242 229 231 256 255 262 253 267 284 278 284 296 303 308 305 313 323 329 331 332 329 323 317 317 318 317 314 310 305 305 303 302
277 263 261 261 266 258 254 272 259 255 244 239 242 239 249 258 227 238 253 257 263 274 300 298 300 300 315 325 331 337 336 344 337 328 323 319 316 313 314 312 310 304 303 299
269 261 262 259 260 248 195 234 254 244 222 207 200 190 198 167 176 221 249 267 273 278 280 283 297 313 325 334 334 335 335 333 335 333 327 324 322 318 316 312 308 307 304 301
267 266 259 253 253 216 154 175 181 183 214 199 182 187 174 193 193 204 160 277 275 277 281 293 309 325 334 336 336 339 338 339 336 333 330 326 324 320 319 314 309 304 302 301
266 263 234 243 224 148 156 192 203 161 182 216 226 219 219 220 215 242 264 268 270 277 295 309 328 324 329 333 338 351 345 340 338 337 335 327 320 320 316 313 313 310 305 298
246 297 234 214 237 199 148 180 179 168 173 220 228 231 236 244 220 248 254 264 273 292 318 331 320 321 331 341 346 350 350 351 345 345 343 326 326 329 325 316 313 313 306 302
294 288 240 125 156 132 135 211 215 163 220 244 247 249 250 251 249 250 253 267 283 301 335 316 315 333 341 342 349 353 357 355 352 351 348 334 329 336 329 319 318 314 306 298
327 276 254 254 260 97 184 200 73 341 296 342 302 261 254 253 250 252 263 279 307 330 336 324 328 332 348 349 355 357 359 1 3 2 356 344 346 344 338 330 324 316 310 302
87 63 257 265 245 241 247 269 285 307 321 324 293 268 262 261 259 259 268 289 325 322 310 323 344 350 348 354 1 3 3 2 1 5 3 356 357 358 348 333 325 321 312 298
347 310 265 254 256 259 272 285 303 298 296 306 291 271 269 266 266 274 295 303 326 329 324 343 346 351 351 349 1 4 1 3 4 9 7 6 6 360 358 337 327 323 316 301
20 52 332 276 273 280 279 287 294 295 288 301 285 274 272 269 272 282 294 306 314 310 319 341 351 351 347 349 355 359 1 4 4 11 10 12 12 10 349 340 332 328 320 311
319 311 313 287 282 285 307 308 301 309 300 291 289 283 271 270 278 292 300 314 315 315 326 341 342 343 340 340 345 353 1 5 10 14 17 19 21 20 9 341 332 328 328 319
312 305 308 300 286 286 282 284 299 295 304 301 286 275 268 276 279 287 298 304 315 325 335 349 343 341 330 332 343 348 355 0 11 18 25 30 30 34 25 346 331 333 327 301